Provincetown, Massachusetts, United States (02657)
Lat: 42.06N, Lon: 70.18W
Wx Zone: MAZ022
Local Info
Past Weather Observations for Today

NOTE: This archive is for the closest National Weather Service station to Provincetown. Information may differ from the station used for current weather conditions.

Click here for Long-term Archive

Time Weather Temperature Dewpoint Humidity Pressure Winds Precip Visibility
20:15
Fair
70°F / 21°C 63°F / 17°C 78% 29.89 in
(1012 mb)
ENE 3.5 mph
(ENE 6 kph)
- 8SM
19:55
Fair
70°F / 21°C 61°F / 16°C 73% 29.89 in
(1012 mb)
ENE 3.5 mph
(ENE 6 kph)
- 10SM
19:35
Fair
70°F / 21°C 63°F / 17°C 78% 29.89 in
(1012 mb)
Calm - 10SM
19:15
Fair
70°F / 21°C 63°F / 17°C 78% 29.89 in
(1012 mb)
Calm - 10SM
18:55
Fair
70°F / 21°C 63°F / 17°C 78% 29.89 in
(1012 mb)
Calm - 10SM
18:35
Fair
70°F / 21°C 63°F / 17°C 78% 29.89 in
(1012 mb)
Calm - 9SM
18:15
Fair
70°F / 21°C 63°F / 17°C 78% 29.86 in
(1011 mb)
Calm - 8SM
17:55
Fair
72°F / 22°C 63°F / 17°C 73% 29.86 in
(1011 mb)
Calm - 9SM
17:35
Fair
72°F / 22°C 63°F / 17°C 73% 29.86 in
(1011 mb)
Calm - 8SM
17:15
Fair
72°F / 22°C 63°F / 17°C 73% 29.86 in
(1011 mb)
ENE 4.6 mph
(ENE 7 kph)
- 8SM
16:55
Fair
73°F / 23°C 64°F / 18°C 74% 29.86 in
(1011 mb)
ENE 4.6 mph
(ENE 7 kph)
- 9SM
16:35
Fair
73°F / 23°C 64°F / 18°C 74% 29.86 in
(1011 mb)
NE 5.8 mph
(NE 9 kph)
- 9SM
16:15
Fair
73°F / 23°C 64°F / 18°C 74% 29.86 in
(1011 mb)
NE 6.9 mph
(NE 11 kph)
- 10SM
15:55
Fair
73°F / 23°C 64°F / 18°C 74% 29.86 in
(1011 mb)
NE 4.6 mph
(NE 7 kph)
- 8SM
15:35
Fair
73°F / 23°C 66°F / 19°C 78% 29.86 in
(1011 mb)
N 6.9 mph
(N 11 kph)
- 9SM
15:15
Fair
75°F / 24°C 66°F / 19°C 74% 29.83 in
(1010 mb)
NE 5.8 mph
(NE 9 kph)
- 9SM
14:55
Fair
75°F / 24°C 66°F / 19°C 74% 29.83 in
(1010 mb)
NNE 6.9 mph
(NNE 11 kph)
- 9SM
14:35
Fair
75°F / 24°C 66°F / 19°C 74% 29.83 in
(1010 mb)
N 8.1 mph
(N 13 kph)
- 9SM
14:15
Fair
75°F / 24°C 66°F / 19°C 74% 29.86 in
(1011 mb)
N 6.9 mph
(N 11 kph)
- 10SM
13:55
Fair
77°F / 25°C 66°F / 19°C 69% 29.86 in
(1011 mb)
N 5.8 mph
(N 9 kph)
- 9SM
13:35
Fair
75°F / 24°C 66°F / 19°C 74% 29.86 in
(1011 mb)
N 6.9 mph
(N 11 kph)
- 8SM
13:15
Fair
75°F / 24°C 66°F / 19°C 74% 29.86 in
(1011 mb)
N 9.2 mph
(N 15 kph)
- 8SM
12:55
Fair
75°F / 24°C 66°F / 19°C 74% 29.86 in
(1011 mb)
N 8.1 mph
(N 13 kph)
- 8SM
12:35
Fair
77°F / 25°C 66°F / 19°C 69% 29.86 in
(1011 mb)
N 5.8 mph
(N 9 kph)
- 10SM
12:15
Fair
75°F / 24°C 64°F / 18°C 69% 29.86 in
(1011 mb)
N 3.5 mph
(N 6 kph)
- 9SM
11:55
Fair
75°F / 24°C 64°F / 18°C 69% 29.86 in
(1011 mb)
NNW 6.9 mph
(NNW 11 kph)
- 8SM
11:35
Fair
75°F / 24°C 66°F / 19°C 74% 29.86 in
(1011 mb)
N 6.9 mph
(N 11 kph)
- 8SM
11:15
Fair
75°F / 24°C 66°F / 19°C 74% 29.89 in
(1012 mb)
NNW 6.9 mph
(NNW 11 kph)
- 8SM
10:55
Fair
75°F / 24°C 64°F / 18°C 69% 29.86 in
(1011 mb)
Calm - 10SM
10:35
Fair
75°F / 24°C 64°F / 18°C 69% 29.86 in
(1011 mb)
N 4.6 mph
(N 7 kph)
- 10SM
10:15
Fair
73°F / 23°C 64°F / 18°C 74% 29.89 in
(1012 mb)
N 4.6 mph
(N 7 kph)
- 10SM
09:55
Fair
75°F / 24°C 64°F / 18°C 69% 29.89 in
(1012 mb)
NNW 5.8 mph
(NNW 9 kph)
- 10SM
09:35
Fair
73°F / 23°C 64°F / 18°C 74% 29.89 in
(1012 mb)
NNW 5.8 mph
(NNW 9 kph)
- 10SM
09:15
Fair
75°F / 24°C 63°F / 17°C 65% 29.89 in
(1012 mb)
NW 4.6 mph
(NW 7 kph)
- 10SM
08:55
Fair
75°F / 24°C 64°F / 18°C 69% 29.86 in
(1011 mb)
WNW 3.5 mph
(WNW 6 kph)
- 10SM
08:35
Fair
73°F / 23°C 64°F / 18°C 74% 29.86 in
(1011 mb)
SSW 4.6 mph
(SSW 7 kph)
- 10SM
08:15
Fair
73°F / 23°C 63°F / 17°C 69% 29.86 in
(1011 mb)
SSW 5.8 mph
(SSW 9 kph)
- 10SM
07:55
Fair
72°F / 22°C 63°F / 17°C 73% 29.86 in
(1011 mb)
SSW 5.8 mph
(SSW 9 kph)
- 10SM
07:35
Fair
72°F / 22°C 63°F / 17°C 73% 29.86 in
(1011 mb)
SW 6.9 mph
(SW 11 kph)
- 10SM
07:15
Fair
72°F / 22°C 63°F / 17°C 73% 29.86 in
(1011 mb)
SSW 8.1 mph
(SSW 13 kph)
- 10SM
06:55
Fair
70°F / 21°C 63°F / 17°C 78% 29.86 in
(1011 mb)
SSW 8.1 mph
(SSW 13 kph)
- 10SM
06:35
Fair
70°F / 21°C 63°F / 17°C 78% 29.86 in
(1011 mb)
SW 6.9 mph
(SW 11 kph)
- 10SM
06:15
Fair
68°F / 20°C 63°F / 17°C 83% 29.86 in
(1011 mb)
SW 5.8 mph
(SW 9 kph)
- 9SM
05:55
Fair
66°F / 19°C 61°F / 16°C 83% 29.86 in
(1011 mb)
SSW 5.8 mph
(SSW 9 kph)
- 8SM
05:35
Fair
66°F / 19°C 61°F / 16°C 83% 29.83 in
(1010 mb)
SSW 4.6 mph
(SSW 7 kph)
- 8SM
05:15
Fair
66°F / 19°C 61°F / 16°C 83% 29.83 in
(1010 mb)
SSW 5.8 mph
(SSW 9 kph)
- 8SM
04:55
Fair
66°F / 19°C 61°F / 16°C 83% 29.83 in
(1010 mb)
SSW 8.1 mph
(SSW 13 kph)
- 10SM
04:35
Fair
66°F / 19°C 61°F / 16°C 83% 29.83 in
(1010 mb)
SSW 5.8 mph
(SSW 9 kph)
- 10SM
04:15
Fair
66°F / 19°C 61°F / 16°C 83% 29.83 in
(1010 mb)
SW 5.8 mph
(SW 9 kph)
- 10SM
03:55
Fair
66°F / 19°C 61°F / 16°C 83% 29.83 in
(1010 mb)
SW 6.9 mph
(SW 11 kph)
- 10SM
03:35
Fair
68°F / 20°C 61°F / 16°C 78% 29.83 in
(1010 mb)
SW 6.9 mph
(SW 11 kph)
- 10SM
03:15
Fair
68°F / 20°C 61°F / 16°C 78% 29.83 in
(1010 mb)
SSW 6.9 mph
(SSW 11 kph)
- 10SM
02:55
Fair
68°F / 20°C 61°F / 16°C 78% 29.83 in
(1010 mb)
SSW 5.8 mph
(SSW 9 kph)
- 10SM
02:35
Fair
68°F / 20°C 61°F / 16°C 78% 29.83 in
(1010 mb)
SSW 6.9 mph
(SSW 11 kph)
- 10SM
02:15
Fair
68°F / 20°C 61°F / 16°C 78% 29.83 in
(1010 mb)
SSW 6.9 mph
(SSW 11 kph)
- 10SM
01:55
Fair
68°F / 20°C 61°F / 16°C 78% 29.83 in
(1010 mb)
SW 6.9 mph
(SW 11 kph)
- 10SM
01:35
Fair
70°F / 21°C 61°F / 16°C 73% 29.83 in
(1010 mb)
SW 6.9 mph
(SW 11 kph)
- 10SM
01:15
Fair
70°F / 21°C 61°F / 16°C 73% 29.83 in
(1010 mb)
SW 8.1 mph
(SW 13 kph)
- 10SM
00:55
Fair
68°F / 20°C 61°F / 16°C 78% 29.86 in
(1011 mb)
SW 6.9 mph
(SW 11 kph)
- 10SM
00:35
Fair
70°F / 21°C 61°F / 16°C 73% 29.86 in
(1011 mb)
SSW 9.2 mph
(SSW 15 kph)
- 10SM
00:15
Fair
70°F / 21°C 61°F / 16°C 73% 29.86 in
(1011 mb)
SW 8.1 mph
(SW 13 kph)
- 10SM
Time Weather Temperature Dewpoint Humidity Pressure Winds Precip Visibility


Weather for websites

WeatherForYou.com, LLC is not responsible for any damages or problems caused by this service. Current weather conditions are obtained from the closest station including government and personal stations which may have varying degrees of accuracy. Weather forecasts are derived from the NOAA NDFD. Like all things, this site belongs to Jesus Christ... He just trusts us to maintain it. If you have any questions or comments email webmaster@weatherforyou.com

Copyright © 2015, WeatherForYou.com LLC. All rights reserved.